Location: Nelson
(41.2830°S, 173.2830°E)
Time: 20:32:40
(UTC+13:00)

Meteor 2-13 Rocket - Visible Passes

Search period start: 17 October 2019 00:00
Search period end: 27 October 2019 00:00
Orbit: 935 x 958 km, 82.5° (Epoch: 16 October)

Date Brightness Start Highest point End Pass type
(mag) Time Alt. Az. Time Alt. Az. Time Alt. Az.
17 Oct 6.1 01:16:00 10° S 01:19:30 29° SSE 01:19:30 29° SSE visible
17 Oct 6.2 03:01:05 10° SSW 03:03:33 21° SW 03:03:33 21° SW visible
18 Oct 5.8 01:32:33 10° S 01:36:11 35° SSE 01:36:11 35° SSE visible
18 Oct 6.5 03:18:38 10° SW 03:20:13 15° SW 03:20:13 15° SW visible
19 Oct 6.7 00:06:40 10° SSE 00:08:48 14° SE 00:08:48 14° SE visible
19 Oct 5.7 01:49:16 10° S 01:52:51 37° S 01:52:51 37° S visible
20 Oct 6.4 00:22:19 10° SSE 00:25:29 20° SE 00:25:29 20° SE visible
20 Oct 5.8 02:06:11 10° SSW 02:09:32 32° SSW 02:09:32 32° SSW visible
21 Oct 6.0 00:38:31 10° S 00:42:10 28° SE 00:42:10 28° SE visible
21 Oct 6.0 02:23:16 10° SSW 02:26:13 25° SW 02:26:13 25° SW visible
22 Oct 5.7 00:55:00 10° S 00:58:52 36° SSE 00:58:52 36° SSE visible
22 Oct 6.3 02:40:38 10° SW 02:42:55 19° SW 02:42:55 19° SW visible
22 Oct 6.7 23:29:54 10° SE 23:31:32 12° ESE 23:31:32 12° ESE visible
23 Oct 5.5 01:11:39 10° S 01:15:35 41° S 01:15:35 41° S visible
23 Oct 6.7 02:58:34 10° SW 02:59:38 12° WSW 02:59:38 12° WSW visible
23 Oct 6.4 23:45:02 10° SSE 23:48:15 18° SE 23:48:15 18° SE visible
24 Oct 5.6 01:28:29 10° SSW 01:32:18 39° SSW 01:32:18 39° SSW visible
25 Oct 6.0 00:01:04 10° SSE 00:04:59 26° SE 00:04:59 26° SE visible
25 Oct 5.8 01:45:30 10° SSW 01:49:02 31° SW 01:49:02 31° SW visible
26 Oct 5.6 00:17:27 10° S 00:21:43 36° SE 00:21:43 36° SE visible
26 Oct 6.1 02:02:45 10° SSW 02:05:47 23° SW 02:05:47 23° SW visible
